Regional Weather Roundup
Issued by NWS

Home | Current Version | Previous Version | Text Only | Print | Product List | Glossary Off
Versions: 1 2 3 4 5 6 7 8 9 10 11 12 13 14 15 16 17 18 19 20 21 22 23 24 25 26 27 28 29 30 31 32 33 34 35 36 37 38 39 40 41 42 43 44 45 46 47 48 49 50

000
ASUS43 KTOP 032159
RWRKS

WEATHER ROUNDUP FOR KANSAS
NATIONAL WEATHER SERVICE GOODLAND KS
400 PM CST SAT DEC 03 2016

NOTE:  "FAIR" INDICATES FEW OR NO CLOUDS BELOW 12,000 FEET WITH NO
SIGNIFICANT WEATHER AND/OR OBSTRUCTIONS TO VISIBILITY.

KSZ001>006-013>018-027>032-041>047-032300-
NORTHWEST KANSAS

CITY           SKY/WX    TMP DP  RH WIND       PRES   REMARKS
GOODLAND       SUNNY     40  28  62 S7        29.97S
HAYS           LGT RAIN  33  32  96 CALM      30.08S FOG
HILL CITY      CLOUDY    33  32  96 SE7       30.07S FOG
RUSSELL        LGT RAIN  35  34  96 SE7       30.06F FOG
$$

KSZ061>065-074>080-084>089-032300-
SOUTHWEST KANSAS

CITY           SKY/WX    TMP DP  RH WIND       PRES   REMARKS
DODGE CITY     LGT RAIN  38  37  97 S7        30.04F
ELKHART          N/A     36  28  73 S8          N/A
GARDEN CITY    CLOUDY    36  34  92 S7        30.01S
GREAT BEND     CLOUDY    38  36  92 SE5       30.07F
LIBERAL        CLOUDY    39  34  81 S7        30.01F
$$

KSZ066>073-081>083-090>101-032300-
SOUTHEAST KANSAS

CITY           SKY/WX    TMP DP  RH WIND       PRES   REMARKS
CHANUTE        CLOUDY    50  35  56 SE8       30.13F
COFFEYVILLE    LGT RAIN  49  42  77 SE3       30.14F
HUTCHINSON     CLOUDY    41  39  93 SE5       30.09F
MEDICINE LODGE   N/A     41  39  93 S6        30.08F
NEWTON         CLOUDY    43  35  73 SE6       30.10F
PARSONS        LGT RAIN  50  38  63 CALM      30.14F
WICHITA INTL   DRIZZLE   44  38  79 SE6       30.10F
WICHITA JABRA  CLOUDY    44  37  76 S6        30.10F
WINFIELD       LGT RAIN  44  39  82 E5        30.12F
$$

KSZ007>012-019>026-033>040-048>060-102>105-032300-
NORTHEAST KANSAS

CITY           SKY/WX    TMP DP  RH WIND       PRES   REMARKS
CONCORDIA      LGT RAIN  35  35 100 E7        30.11F FOG
EMPORIA        CLOUDY    45  37  73 CALM      30.12F
LAWRENCE       CLOUDY    48  33  56 E8        30.15F
MANHATTAN      LGT RAIN  39  36  89 NE3       30.13F
OLATHE IND     CLOUDY    48  32  53 SE7       30.15F
OLATHE EXE     CLOUDY    47  31  53 SE8       30.15F
SALINA         CLOUDY    40  37  89 E5        30.11F FOG
TOPEKA BILLARD CLOUDY    47  32  56 E7        30.14F
TOPEKA FORBES  CLOUDY    49  32  52 SE6       30.13F
$$




USA.gov is the U.S. government's official web portal to all federal, state and local government web resources and services.